Meteopurmerend
purmerend
Purmerend - Baaienwijk



My webcam  My webcam


Onweer radar Meer informatie blitzortung!


Regen radar Meer informatie rain snow radar


Bezoek onze andere website:

CandyAppleRed WebdesignWebdesign Purmerend Candy Apple Red

MeteopurmerendBlog

Template documentation
and downloads



Wind van: 01-12-2021 10:00 tot: 16:00 waarschuwing voor: Wind niveau: Geel info button
Kans op zware windstoten tot 80-90 km/uur, verder landinwaarts tot 70-80 km/uur.Kans op windstoten.Verkeer en buitenactiviteiten kunnen hinder ondervinden.Volg weerberichten en waarschuwingen.

15 daagse weersverwachting Ringsted (DK)

  • Overzicht
  • Per uur
  • 15 dagen
  • Extra
  • Vergelijk
  • Kaarten
  • Dagkaart
  • Meer »
  • Info
  • Statistieken
  • Directe link
    Temp 6h Neerslag Wind  
 08:19     15:46    Daglengte: 7:27 Vandaag
13:00
15.9 mm
6
19:00
20.8 mm
5
 08:21     15:46    Daglengte: 7:25 Morgen
01:00
13.7 mm
10
warningclass
07:00
28.1 mm
10
warningclass
13:00
5.0 mm
7
warningclass
19:00
-1°
 
4
 08:22     15:45    Daglengte: 7:23 Vrijdag 03 Dec
01:00
 
5
07:00
16.5 mm
5
13:00
8.3 mm
4
19:00
48.6 mm
6
 08:24     15:44    Daglengte: 7:20 Zaterdag 04 Dec
01:00
45.6 mm
5
07:00
 
4
Locatie info
Region: Sjælland
Latitude: 55.4459°N
Longitude: 11.7873°E
54 masl
Postcode: 4100
Temp/Neerslag /Baro Onweer/DauwpuntSneeuw
    Temp Baro 1h Neerslag Dauwpunt Wind UV BewolkingSneeuw  
 08:19     15:46    Daglengte: 7:27 Vandaag
11:00
Voelt als: -5.9°
985.1 hPa 3.6 mm
82%
0.4°
9
Windvlaag: 9.5 m/s
86%7 cm warningclass
12:00
Voelt als: -3.2°
982.6 hPa 3.6 mm
82%
2.3°
8
Windvlaag: 10.6 m/s
86%8 cm
13:00
Voelt als: -1.3°
980.4 hPa 4.4 mm
82%
3.2°
6
Windvlaag: 10.8 m/s
86%8 cm
14:00
Voelt als: 1.1°
978.7 hPa 4.4 mm
82%
4.4°
6
Windvlaag: 10.5 m/s
86%7 cm
15:00
Voelt als: 1.7°
977.3 hPa 3.5 mm
82%
4.9°
7
Windvlaag: 12.7 m/s
69%7 cm
16:00
Voelt als: 1.6°
976.1 hPa
82%
4.8°
8
Windvlaag: 13.9 m/s
82%6 cm
17:00
Voelt als: 1.9°
974.7 hPa 4.2 mm
82%
5.1°
8
Windvlaag: 14.6 m/s
86%6 cm
18:00
Voelt als: 2.4°
973.4 hPa 4.3 mm
82%
4.9°
6
Windvlaag: 14 m/s
85%6 cm
19:00
Voelt als: 2.7°
972.4 hPa 4.4 mm
82%
4.2°
5
Windvlaag: 12.6 m/s
86%6 cm
20:00
Voelt als: 2.5°
971.7 hPa 4.6 mm
82%
3.5°
4
Windvlaag: 10.4 m/s
86%5 cm
21:00
Voelt als: 2.7°
971.1 hPa 4.7 mm
82%
3.6°
3
Windvlaag: 7.2 m/s
77%5 cm
22:00
Voelt als: 2.4°
971.3 hPa
82%
3.4°
3
Windvlaag: 7 m/s
83%5 cm
23:00
Voelt als: 1.0°
971.6 hPa
78%
2.4°
4
Windvlaag: 3.9 m/s
86%5 cm
 08:21     15:46    Daglengte: 7:25 Morgen
00:00
Voelt als: -2.6°
972.6 hPa
77%
1.4°
8
Windvlaag: -8.7 m/s
86%5 cm
01:00
Voelt als: -6.1°
974.8 hPa 4.5 mm
82%
-0.1°
10
Windvlaag: -11.6 m/s
83%5 cm warningclass
02:00
Voelt als: -6.9°
977.1 hPa 4.3 mm
82%
-1.1°
11
Windvlaag: -10.8 m/s
83%5 cm warningclass
03:00
Voelt als: -7.3°
979.4 hPa 4.4 mm
82%
-2.1°
11
Windvlaag: -10.1 m/s
86%5 cm warningclass
04:00
Voelt als: -7.1°
981.2 hPa 4.7 mm
82%
-2.5°
10
Windvlaag: -9.2 m/s
85%6 cm warningclass
05:00
Voelt als: -7.1°
982.7 hPa 4.8 mm
82%
-2.6°
10
Windvlaag: -8.3 m/s
86%7 cm warningclass
06:00
Voelt als: -7.0°
984.1 hPa 4.9 mm
82%
-2.6°
10
Windvlaag: -8.9 m/s
70%7 cm warningclass
07:00
Voelt als: -6.8°
985.6 hPa 5.0 mm
82%
-2.9°
10
Windvlaag: -7.4 m/s
86%8 cm warningclass
08:00
Voelt als: -6.7°
987.2 hPa 5.0 mm
82%
-3.1°
9
Windvlaag: -7.4 m/s
85%8 cm warningclass
09:00
Voelt als: -6.2°
988.7 hPa
71%
-3.8°
9
Windvlaag: -7.6 m/s
86%8 cm
10:00
Voelt als: -6.0°
990.2 hPa
15%
-4.7°
9
Windvlaag: -7.2 m/s
85%8 cm
11:00
Voelt als: -5.4°
991.4 hPa
14%
-5.3°
8
Windvlaag: -7.4 m/s
81%8 cm
12:00
Voelt als: -5.0°
992.3 hPa
14%
-4.1°
8
Windvlaag: -7.5 m/s
78%8 cm
13:00
Voelt als: -4.4°
993.3 hPa
14%
-3.4°
7
Windvlaag: -7.7 m/s
77%8 cm
14:00
Voelt als: -4.4°
994.2 hPa
14%
-3.3°
6
Windvlaag: -5.3 m/s
77%8 cm
15:00
Voelt als: -4.8°
995.2 hPa
14%
-4.1°
6
Windvlaag: -4.8 m/s
72%7 cm
16:00
Voelt als: -5.5°
996.2 hPa
14%
-3.3°
6
Windvlaag: -3.1 m/s
12%7 cm
17:00
-0°
Voelt als: -5.5°
997.1 hPa
14%
-4.3°
5
Windvlaag: -3.3 m/s
9%7 cm
18:00
-1°
Voelt als: -5.4°
997.7 hPa
14%
-4.7°
4
Windvlaag: -2.5 m/s
0%7 cm
19:00
-1°
Voelt als: -5.8°
998.2 hPa
14%
-5.2°
4
Windvlaag: -1.7 m/s
0%7 cm
20:00
-2°
Voelt als: -5.9°
998.4 hPa
15%
-5.4°
3
Windvlaag: 0.2 m/s
0%7 cm
21:00
-2°
Voelt als: -5.8°
998.4 hPa
20%
-4.8°
3
Windvlaag: 1.5 m/s
2%7 cm
22:00
-1°
Voelt als: -6.1°
998.1 hPa
15%
-4.1°
4
Windvlaag: 4.8 m/s
68%7 cm
23:00
-0°
Voelt als: -5.1°
997.6 hPa
56%
-2.6°
5
Windvlaag: 6.2 m/s
58%8 cm
 08:22     15:45    Daglengte: 7:23 Vrijdag 03 Dec
00:00
Voelt als: -4.8°
997.4 hPa
14%
-1.5°
5
Windvlaag: 3.7 m/s
52%8 cm
01:00
Voelt als: -4.3°
997.5 hPa
14%
-0.6°
5
Windvlaag: 3.1 m/s
63%8 cm
02:00
Voelt als: -3.9°
997.4 hPa
14%
-0.9°
5
Windvlaag: 2.9 m/s
63%8 cm
03:00
Voelt als: -4.0°
997.6 hPa
24%
-1.2°
6
Windvlaag: 2.9 m/s
63%8 cm
04:00
Voelt als: -4.2°
997.8 hPa
33%
-1.5°
6
Windvlaag: 2.8 m/s
77%8 cm
05:00
Voelt als: -3.5°
997.7 hPa 8.2 mm
34%
-1.2°
6
Windvlaag: 1.8 m/s
75%8 cm
06:00
Voelt als: -3.4°
998.0 hPa 8.2 mm
24%
-0.5°
5
Windvlaag: 1.6 m/s
73%8 cm
07:00
Voelt als: -3.3°
998.3 hPa
24%
-0.2°
5
Windvlaag: 0.4 m/s
78%8 cm
08:00
Voelt als: -3.3°
998.8 hPa
22%
0.5°
5
Windvlaag: 0.4 m/s
84%8 cm
09:00
Voelt als: -3.2°
999.4 hPa
22%
1.0°
5
Windvlaag: 0.9 m/s
72%8 cm
10:00
Voelt als: -3.0°
999.6 hPa
23%
1.2°
4
Windvlaag: 2.9 m/s
86%8 cm
11:00
Voelt als: -2.3°
999.7 hPa
24%
0.8°
4
Windvlaag: 2.8 m/s
94%8 cm
12:00
Voelt als: -1.4°
999.5 hPa
98%
-0.7°
4
Windvlaag: 2.4 m/s
87%8 cm
13:00
Voelt als: -1.2°
999.4 hPa 8.3 mm
100%
-1.3°
4
Windvlaag: 2.3 m/s
88%8 cm
14:00
Voelt als: -1.5°
999.2 hPa 8.6 mm
100%
-0.9°
4
Windvlaag: 2.2 m/s
75%8 cm
15:00
Voelt als: -2.3°
999.1 hPa 8.8 mm
100%
0.4°
5
Windvlaag: 3.5 m/s
66%8 cm
16:00
Voelt als: -2.2°
998.8 hPa 8.4 mm
100%
-0.1°
5
Windvlaag: 4.2 m/s
75%8 cm
17:00
Voelt als: -2.6°
998.5 hPa 8.3 mm
100%
0.6°
5
Windvlaag: 5 m/s
95%8 cm
18:00
Voelt als: -3.1°
998.1 hPa 8.5 mm
100%
0.2°
6
Windvlaag: 6.2 m/s
96%8 cm
19:00
Voelt als: -3.7°
997.9 hPa 6.0 mm
100%
-1.2°
6
Windvlaag: 6.5 m/s
95%8 cm
20:00
Voelt als: -3.6°
997.6 hPa 5.7 mm
100%
-0.7°
7
Windvlaag: 8.1 m/s
94%8 cm
21:00
Voelt als: -4.5°
997.4 hPa 5.4 mm
100%
-1.1°
7
Windvlaag: 9.1 m/s
90%8 cm warningclass
22:00
Voelt als: -4.7°
997.0 hPa 9.0 mm
92%
-2.3°
6
Windvlaag: 9.1 m/s
82%8 cm warningclass
23:00
Voelt als: -4.5°
996.8 hPa 8.9 mm
79%
-2.0°
5
Windvlaag: 8.9 m/s
90%8 cm warningclass
 08:24     15:44    Daglengte: 7:20 Zaterdag 04 Dec
00:00
Voelt als: -2.8°
996.2 hPa 8.3 mm
28%
-0.5°
6
Windvlaag: 8.7 m/s
99%8 cm
01:00
Voelt als: -1.6°
995.8 hPa 8.3 mm
22%
1.4°
5
Windvlaag: 8.5 m/s
97%8 cm
02:00
Voelt als: -0.3°
994.7 hPa
24%
3.3°
4
Windvlaag: 7.3 m/s
90%8 cm
03:00
Voelt als: -0.1°
994.5 hPa
21%
3.4°
4
Windvlaag: 8.1 m/s
100%8 cm
04:00
Voelt als: 0.1°
994.3 hPa
24%
3.6°
4
Windvlaag: 8.7 m/s
100%8 cm
05:00
Voelt als: 0.6°
993.9 hPa
29%
3.8°
4
Windvlaag: 9.3 m/s
96%8 cm
06:00
Voelt als: 0.5°
993.7 hPa
72%
3.7°
4
Windvlaag: 9.9 m/s
95%8 cm
07:00
Voelt als: 0.1°
993.7 hPa
77%
3.6°
4
Windvlaag: 10.6 m/s
98%8 cm
08:00
Voelt als: -4.3°
991.8 hPa 25.7 mm
100%
0.6°
5
Windvlaag: 10 m/s
100%8 cm warningclass
09:00
Voelt als: -5.0°
991.5 hPa 26.7 mm
100%
0.3°
6
Windvlaag: 10.4 m/s
100%8 cm warningclass
10:00
Voelt als: -4.7°
991.2 hPa 28.0 mm
100%
0.4°
6
Windvlaag: 7.9 m/s
100%9 cm warningclass
Temp/Neerslag /Baro Onweer/DauwpuntSneeuw
    Temp Baro Neerslag Dauwpunt Wind BewolkingSneeuw  
 08:19     15:46    Daglengte: 7:27 Vandaag
13:00
Voelt als: -1.3°
980.4 hPa 11.6 mm 3.2°
6
86%8 cm
16:00
Voelt als: 1.6°
976.1 hPa 7.9 mm 4.8°
8
82%6 cm
19:00
Voelt als: 2.7°
972.4 hPa 12.9 mm 4.2°
5
86%6 cm
22:00
Voelt als: 2.4°
971.3 hPa 9.3 mm 3.4°
3
83%5 cm
 08:21     15:46    Daglengte: 7:25 Morgen
01:00
Voelt als: -6.1°
974.8 hPa 4.5 mm -0.1°
10
83%5 cm warningclass
04:00
Voelt als: -7.1°
981.2 hPa 13.4 mm -2.5°
10
85%6 cm warningclass
07:00
Voelt als: -6.8°
985.6 hPa 14.7 mm -2.9°
10
86%8 cm warningclass
10:00
Voelt als: -6.0°
990.2 hPa 5.0 mm -4.7°
9
85%8 cm warningclass
13:00
Voelt als: -4.4°
993.3 hPa   -3.4°
7
77%8 cm
16:00
Voelt als: -5.5°
996.2 hPa   -3.3°
6
12%7 cm
19:00
-1°
Voelt als: -5.8°
998.2 hPa   -5.2°
4
0%7 cm
22:00
-1°
Voelt als: -6.1°
998.1 hPa   -4.1°
4
68%7 cm
 08:22     15:45    Daglengte: 7:23 Vrijdag 03 Dec
01:00
Voelt als: -4.3°
997.5 hPa   -0.6°
5
63%8 cm
04:00
Voelt als: -4.2°
997.8 hPa   -1.5°
6
77%8 cm
07:00
Voelt als: -3.3°
998.3 hPa 16.5 mm -0.2°
5
78%8 cm
10:00
Voelt als: -3.0°
999.6 hPa   1.2°
4
86%8 cm
13:00
Voelt als: -1.2°
999.4 hPa 8.3 mm -1.3°
4
88%8 cm
16:00
Voelt als: -2.2°
998.8 hPa 25.8 mm -0.1°
5
75%8 cm
19:00
Voelt als: -3.7°
997.9 hPa 22.8 mm -1.2°
6
95%8 cm
22:00
Voelt als: -4.7°
997.0 hPa 20.0 mm -2.3°
6
82%8 cm warningclass
 08:24     15:44    Daglengte: 7:20 Zaterdag 04 Dec
01:00
Voelt als: -1.6°
995.8 hPa 25.6 mm 1.4°
5
97%8 cm
04:00
Voelt als: 0.1°
994.3 hPa   3.6°
4
100%8 cm
07:00
Voelt als: 0.1°
993.7 hPa   3.6°
4
98%8 cm
10:00
Voelt als: -4.7°
991.2 hPa 80.4 mm 0.4°
6
100%9 cm warningclass
13:00
Voelt als: -3.4°
990.2 hPa 88.0 mm 1.1°
5
100%10 cm warningclass
16:00
Voelt als: -3.8°
994.7 hPa 30.2 mm 0.9°
6
1% warningclass
19:00
Voelt als: -3.5°
995.0 hPa 31.3 mm 1.1°
5
1%
22:00
Voelt als: -3.2°
995.3 hPa 32.7 mm 1.5°
6
1%
 08:25     15:44    Daglengte: 7:19 Zondag 05 Dec
01:00
Voelt als: -0.4°
995.6 hPa 33.7 mm 2.9°
3
1%
04:00
Voelt als: 0.8°
996.8 hPa 35.9 mm 3.3°
3
1%
07:00
Voelt als: 0.1°
998.6 hPa 37.3 mm 3.0°
4
1%
10:00
Voelt als: -0.9°
1000.9 hPa 40.7 mm 2.9°
5
1%
13:00
Voelt als: 0.5°
1002.9 hPa 41.3 mm 2.2°
4
1%
16:00
Voelt als: -1.2°
1005.1 hPa 41.3 mm 1.2°
4
1%
19:00
Voelt als: -1.6°
1007.3 hPa 41.3 mm 0.2°
3
1%
22:00
Voelt als: -2.1°
1009.5 hPa 41.3 mm -0.6°
2
0% warningclass
 08:27     15:43    Daglengte: 7:16 Maandag 06 Dec
01:00
Voelt als: -1.7°
1010.6 hPa 41.3 mm -0.3°
2
0% warningclass
04:00
Voelt als: 1.0°
1012.0 hPa 41.3 mm 0.7°
2
1%
07:00
1013.6 hPa 41.4 mm 0.7°
1
1%
10:00
Voelt als: 2.8°
1015.4 hPa 41.4 mm 0.6°
0
1%
13:00
Voelt als: 2.3°
1015.3 hPa 41.4 mm 1.2°
1
1%
16:00
Voelt als: 1.8°
1016.4 hPa 41.5 mm 1.4°
1
1%
19:00
Voelt als: 0.3°
1017.2 hPa 41.7 mm 1.4°
2
1%
22:00
Voelt als: 1.1°
1018.4 hPa 41.8 mm 1.3°
1
1%
 08:28     15:43    Daglengte: 7:15 Dinsdag 07 Dec
01:00
Voelt als: 0.6°
1018.8 hPa 41.8 mm 0.3°
1
1%
04:00
Voelt als: 1.0°
1019.5 hPa 41.8 mm 0.1°
1
1%
07:00
Voelt als: 0.7°
1019.7 hPa 41.8 mm 0.3°
1
1%
10:00
Voelt als: -0.1°
1020.3 hPa 41.8 mm -0.6°
2
1%
13:00
Voelt als: 1.1°
1020.3 hPa 41.8 mm -0.0°
2
0%
16:00
Voelt als: -0.6°
1020.5 hPa 41.8 mm -0.3°
3
1%
19:00
Voelt als: -2.3°
1020.5 hPa 41.8 mm -0.0°
3
1% warningclass
22:00
Voelt als: -2.5°
1021.1 hPa 41.8 mm -0.0°
3
1% warningclass
 08:29     15:42    Daglengte: 7:13 Woensdag 08 Dec
01:00
Voelt als: -3.1°
1021.0 hPa 41.8 mm -0.1°
4
1% warningclass
04:00
Voelt als: -4.0°
1020.7 hPa 41.8 mm -0.7°
4
0% warningclass
07:00
Voelt als: -4.4°
1020.6 hPa 41.8 mm -0.8°
5
0% warningclass
10:00
Voelt als: -3.4°
1021.5 hPa   -1.0°
6
1%
13:00
Voelt als: -1.7°
1021.4 hPa 83.7 mm -0.9°
6
1%
19:00
Voelt als: -2.8°
1023.1 hPa 83.7 mm -1.5°
5
1%
 08:31     15:42    Daglengte: 7:11 Donderdag 09 Dec
01:00
Voelt als: -3.1°
1024.0 hPa 83.7 mm -1.1°
4
1% warningclass
07:00
-0°
Voelt als: -4.2°
1024.8 hPa 83.7 mm -2.0°
4
1% warningclass
13:00
Voelt als: -1.9°
1025.4 hPa 83.7 mm -2.6°
5
1%
19:00
-0°
Voelt als: -4.8°
1025.3 hPa 83.7 mm -3.7°
4
0% warningclass
 08:32     15:42    Daglengte: 7:10 Vrijdag 10 Dec
01:00
-1°
Voelt als: -5.4°
1025.2 hPa 83.7 mm -4.4°
4
0% warningclass
07:00
-1°
Voelt als: -5.7°
1025.4 hPa 83.7 mm -3.8°
4
1% warningclass
13:00
Voelt als: -2.7°
1026.5 hPa 83.7 mm -2.5°
4
0%
19:00
-1°
Voelt als: -4.4°
1028.3 hPa 83.7 mm -2.1°
3
0% warningclass
 08:33     15:41    Daglengte: 7:08 Zaterdag 11 Dec
01:00
Voelt als: -1.8°
1031.1 hPa 83.7 mm -2.1°
2
1% warningclass
07:00
Voelt als: -0.6°
1011.3 hPa 0.5 mm 1.4°
4
73%
13:00
Voelt als: 0.5°
1011.1 hPa 0.5 mm 1.9°
5
80%
19:00
Voelt als: -0.1°
1010.7 hPa   1.5°
5
78%
 08:34     15:41    Daglengte: 7:07 Zondag 12 Dec
01:00
Voelt als: -0.3°
1011.6 hPa 0.6 mm 1.4°
5
70%
07:00
Voelt als: -0.0°
1011.0 hPa 0.7 mm 1.9°
5
81%
13:00
Voelt als: 1.5°
1011.3 hPa 0.7 mm 2.5°
5
79%
19:00
Voelt als: 0.9°
1011.9 hPa 0.8 mm 2.2°
5
79%
 08:35     15:41    Daglengte: 7:06 Maandag 13 Dec
01:00
Voelt als: 0.4°
1013.3 hPa 0.3 mm 1.6°
5
74%
07:00
Voelt als: 0.3°
1013.7 hPa 0.3 mm 1.8°
5
72%
13:00
Voelt als: 1.6°
1014.3 hPa 0.5 mm 2.3°
5
74%
19:00
Voelt als: 0.7°
1015.3 hPa 0.5 mm 2.3°
5
74%
 08:36     15:41    Daglengte: 7:05 Dinsdag 14 Dec
01:00
Voelt als: 0.5°
1016.7 hPa 0.3 mm 2.5°
5
69%
07:00
Voelt als: 0.7°
1016.9 hPa 0.4 mm 2.7°
5
62%
13:00
Voelt als: 2.3°
1018.4 hPa 0.2 mm 3.0°
5
66%
19:00
Voelt als: 1.4°
1018.7 hPa 0.2 mm 2.6°
4
70%
 08:37     15:41    Daglengte: 7:04 Woensdag 15 Dec
01:00
Voelt als: 0.8°
1018.6 hPa 0.8 mm 2.7°
5
77%
07:00
Voelt als: 1.3°
1017.6 hPa 0.7 mm 2.8°
4
73%
13:00
Voelt als: 2.1°
1017.5 hPa 0.6 mm 2.7°
5
71%
19:00
Voelt als: 1.6°
1016.3 hPa 0.6 mm 3.1°
5
75%
 08:38     15:41    Daglengte: 7:03 Donderdag 16 Dec
01:00
Voelt als: 1.4°
1015.8 hPa 0.1 mm 3.3°
5
70%
07:00
Voelt als: 1.3°
1015.9 hPa 0.6 mm 2.6°
4
71%
  CAPE Lifted Index Hail Supercell Tornado SRH 3km CL BTM PRES CL TOP PRES Swiss DWD icon SMHI TS
 08:19     15:46    Daglengte: 7:27 Vandaag
11:00 0 J/kg 5.8 K 0 % 0 % 0 % 0 m²/s² 0 0 6.07 73
12:00 0 J/kg 3.7 K 0 % 0 % 0 % 0 m²/s² 0 0 4.03 61
13:00 1 J/kg 1.5 K 0 % 0 % 0 % 0 m²/s² 0 0 1.86 55
14:00 0 J/kg 1.0 K 0 % 0 % 0 % 0 m²/s² 0 0 2.05 61
15:00 1 J/kg 0.9 K 0 % 0 % 0 % 0 m²/s² 0 0 2.64 61
16:00 8 J/kg 2.2 K 0 % 0 % 0 % 0 m²/s² 0 0 4.03 61
17:00 8 J/kg 2.7 K 0 % 0 % 0 % 0 m²/s² 0 0 3.15 61
18:00 22 J/kg 3.2 K 0 % 0 % 0 % 0 m²/s² 0 0 3.65 61
19:00 9 J/kg 2.5 K 0 % 0 % 0 % 0 m²/s² 0 0 2.95 61
20:00 0 J/kg 1.8 K 0 % 0 % 0 % 0 m²/s² 0 0 2.19 61
21:00 0 J/kg 1.7 K 0 % 0 % 0 % 0 m²/s² 0 0 2.39 61
22:00 0 J/kg 1.9 K 0 % 0 % 0 % 0 m²/s² 0 0 2.8 3
23:00 1 J/kg 2.5 K 0 % 0 % 0 % 0 m²/s² 0 0 3.79 3
 08:21     15:46    Daglengte: 7:25 Morgen
00:00 3 J/kg 3.0 K 0 % 0 % 0 % 0 m²/s² 0 0 4.83 77
01:00 4 J/kg 4.7 K 0 % 0 % 0 % 0 m²/s² 0 0 5.9 71
02:00 5 J/kg 6.9 K 0 % 0 % 0 % 0 m²/s² 0 0 7.5 71
03:00 11 J/kg 9.0 K 0 % 0 % 0 % 0 m²/s² 0 0 9.48 71
04:00 9 J/kg 9.7 K 0 % 0 % 0 % 0 m²/s² 0 0 10.21 71
05:00 7 J/kg 9.4 K 0 % 0 % 0 % 0 m²/s² 0 0 9.97 71
06:00 7 J/kg 9.6 K 0 % 0 % 0 % 0 m²/s² 0 0 10.2 71
07:00 5 J/kg 9.4 K 0 % 0 % 0 % 0 m²/s² 0 0 10.06 71
08:00 7 J/kg 8.9 K 0 % 0 % 0 % 0 m²/s² 0 0 9.62 71
09:00 9 J/kg 8.0 K 0 % 0 % 0 % 0 m²/s² 0 0 8.72 71
10:00 17 J/kg 7.3 K 0 % 0 % 0 % 0 m²/s² 0 0 8.05 3
11:00 10 J/kg 6.8 K 0 % 0 % 0 % 0 m²/s² 0 0 7.55 3
12:00 13 J/kg 6.5 K 0 % 0 % 0 % 0 m²/s² 0 0 8.72 3
13:00 17 J/kg 5.7 K 0 % 0 % 0 % 0 m²/s² 0 0 9.66 3
14:00 37 J/kg 5.0 K 0 % 0 % 0 % 0 m²/s² 0 0 11.03 3
15:00 15 J/kg 4.9 K 0 % 0 % 0 % 0 m²/s² 0 0 10.18 3
16:00 1 J/kg 5.0 K 0 % 0 % 0 % 0 m²/s² 0 0 9.47 2
17:00 0 J/kg 5.2 K 0 % 0 % 0 % 0 m²/s² 0 0 8.47 0
18:00 0 J/kg 4.4 K 0 % 0 % 0 % 0 m²/s² 0 0 7.13 0
19:00 0 J/kg 3.5 K 0 % 0 % 0 % 0 m²/s² 0 0 7.22 0
20:00 0 J/kg 3.5 K 0 % 0 % 0 % 0 m²/s² 0 0 6.86 0
21:00 0 J/kg 3.6 K 0 % 0 % 0 % 0 m²/s² 0 0 5.07 1
22:00 0 J/kg 3.2 K 0 % 0 % 0 % 0 m²/s² 0 0 3.86 3
23:00 0 J/kg 2.3 K 0 % 0 % 0 % 0 m²/s² 0 0 2.96 3
 08:22     15:45    Daglengte: 7:23 Vrijdag 03 Dec
00:00 32 J/kg 3.4 K 0 % 0 % 0 % 0 m²/s² 0 0 4.54 3
01:00 165 J/kg 4.5 K 0 % 0 % 0 % 0 m²/s² 0 0 5.58 3
02:00 110 J/kg 5.5 K 0 % 0 % 0 % 0 m²/s² 0 0 8.35 3
03:00 19 J/kg 7.3 K 0 % 0 % 0 % 0 m²/s² 0 0 10.99 3
04:00 2 J/kg 8.0 K 0 % 0 % 0 % 0 m²/s² 0 0 11.78 3
05:00 5 J/kg 8.0 K 0 % 0 % 0 % 0 m²/s² 0 0 10.94 3
06:00 7 J/kg 7.7 K 0 % 0 % 0 % 0 m²/s² 0 0 10.19 3
07:00 4 J/kg 7.9 K 0 % 0 % 0 % 0 m²/s² 0 0 10.6 3
08:00 0 J/kg 7.7 K 0 % 0 % 0 % 0 m²/s² 0 0 10.19 3
09:00 0 J/kg 8.1 K 0 % 0 % 0 % 0 m²/s² 0 0 10.83 2
10:00 0 J/kg 9.2 K 0 % 0 % 0 % 0 m²/s² 0 0 11.72 3
11:00 0 J/kg 9.4 K 0 % 0 % 0 % 0 m²/s² 0 0 11.86 3
12:00 0 J/kg 9.5 K 0 % 0 % 0 % 0 m²/s² 0 0 11.45 3
13:00 0 J/kg 9.6 K 0 % 0 % 0 % 0 m²/s² 0 0 11.1 61
14:00 0 J/kg 9.6 K 0 % 0 % 0 % 0 m²/s² 0 0 11.1 61
15:00 0 J/kg 9.7 K 0 % 0 % 0 % 0 m²/s² 0 0 10.39 61
16:00 0 J/kg 9.5 K 0 % 0 % 0 % 0 m²/s² 0 0 10.13 61
17:00 0 J/kg 9.0 K 0 % 0 % 0 % 0 m²/s² 0 0 9.63 61
18:00 0 J/kg 8.7 K 0 % 0 % 0 % 0 m²/s² 0 0 9.36 61
19:00 0 J/kg 8.5 K 0 % 0 % 0 % 0 m²/s² 0 0 9.19 63
20:00 0 J/kg 8.1 K 0 % 0 % 0 % 0 m²/s² 0 0 9 61
21:00 0 J/kg 8.7 K 0 % 0 % 0 % 0 m²/s² 0 0 9.84 61
22:00 0 J/kg 8.7 K 0 % 0 % 0 % 0 m²/s² 0 0 9.75 3
23:00 0 J/kg 8.3 K 0 % 0 % 0 % 0 m²/s² 0 0 9.08 3
 08:24     15:44    Daglengte: 7:20 Zaterdag 04 Dec
00:00 0 J/kg 7.4 K 0 % 0 % 0 % 0 m²/s² 0 0 8.51 3
01:00 0 J/kg 6.7 K 0 % 0 % 0 % 0 m²/s² 0 0 7.72 3
02:00 0 J/kg 6.2 K 0 % 0 % 0 % 0 m²/s² 0 0 7.7 3
03:00 1 J/kg 6.1 K 0 % 0 % 0 % 0 m²/s² 0 0 6.64 3
04:00 1 J/kg 5.6 K 0 % 0 % 0 % 0 m²/s² 0 0 6.11 3
05:00 2 J/kg 5.6 K 0 % 0 % 0 % 0 m²/s² 0 0 6.08 3
06:00 4 J/kg 5.0 K 0 % 0 % 0 % 0 m²/s² 0 0 5.54 3
07:00 1 J/kg 5.3 K 0 % 0 % 0 % 0 m²/s² 0 0 5.78 3
08:00 1 J/kg 5.2 K 0 % 0 % 0 % 0 m²/s² 0 0 5.62
09:00 0 J/kg 4.8 K 0 % 0 % 0 % 0 m²/s² 0 0 5.28
10:00 0 J/kg 4.4 K 0 % 0 % 0 % 0 m²/s² 0 0 4.88
Temp Baro Wind Neerslag
  EWN Forecast EWN WRFDA DWD ICON FMI HIRLAM MET Norway GFS
 08:19     15:46    Daglengte: 7:27 Vandaag
13:00 3.3° 980.4 hPa 6.2 m/s 11.6 mm 3.8° 976.7 hPa 7.2 m/s 39.6 mm 2.9° 980.4 hPa 5.9 m/s 3.8 mm 3.7° 980.9 hPa 5.4 m/s 0.0 mm 6.0° 978.6 hPa 6.8 m/s
16:00 6.1° 976.1 hPa 8.0 m/s 7.9 mm 5.0° 972.5 hPa 5.9 m/s 47.0 mm 6.0° 976.1 hPa 5.7 m/s 2.8 mm 7.3° 977.0 hPa 8.4 m/s 0.0 mm 6.4° 974.9 hPa 8.4 m/s
19:00 6.1° 972.4 hPa 5.1 m/s 12.9 mm 4.2° 968.7 hPa 2.8 m/s 52.5 mm 5.9° 972.7 hPa 3.9 m/s 3.3 mm 7.5° 973.5 hPa 5.0 m/s 0.0 mm 5.5° 970.3 hPa 3.8 m/s
22:00 5.0° 971.3 hPa 3.2 m/s 9.3 mm 3.7° 968.1 hPa 2.5 m/s 56.0 mm 3.6° 972.2 hPa 5.2 m/s 1.0 mm 6.2° 971.8 hPa 2.3 m/s 0.0 mm
 08:21     15:46    Daglengte: 7:25 Morgen
01:00 0.8° 974.8 hPa 10.3 m/s 4.5 mm 0.1° 971.8 hPa 11.0 m/s 56.3 mm -0.2° 977.8 hPa 8.7 m/s 0.5 mm 2.8° 973.3 hPa 10.0 m/s 0.0 mm 0.0° 978.9 hPa 11.2 m/s
04:00 0.1° 981.2 hPa 10.4 m/s 13.4 mm -0.4° 976.9 hPa 10.5 m/s 58.6 mm -0.0° 984.9 hPa 8.9 m/s 2.3 mm 0.9° 978.6 hPa 10.5 m/s 0.0 mm -0.1° 984.2 hPa 10.5 m/s
07:00 0.1° 985.6 hPa 9.8 m/s 14.7 mm -0.3° 981.4 hPa 12.3 m/s 66.7 mm -0.1° 989.8 hPa 7.3 m/s 2.0 mm 1.2° 982.6 hPa 11.3 m/s 0.0 mm -0.1° 988.3 hPa 8.4 m/s
10:00 0.4° 990.2 hPa 8.5 m/s 5.0 mm 0.7° 985.9 hPa 9.4 m/s 70.8 mm 0.1° 994.4 hPa 5.1 m/s 0.4 mm 1.8° 987.4 hPa 10.6 m/s 0.0 mm 1.1° 992.3 hPa 6.9 m/s
13:00 1.1° 993.3 hPa 6.8 m/s 0.0 mm 1.3° 988.2 hPa 6.9 m/s 71.2 mm 0.9° 996.7 hPa 4.3 m/s 0.0 mm 2.3° 990.5 hPa 7.8 m/s 0.0 mm 1.4° 994.4 hPa 5.8 m/s
16:00 0.1° 996.2 hPa 6.3 m/s 0.0 mm -1.4° 991.0 hPa 6.1 m/s 71.2 mm -0.1° 998.9 hPa 4.9 m/s 0.0 mm 1.0° 993.4 hPa 6.6 m/s 0.0 mm 0.1° 996.5 hPa 4.2 m/s
19:00 -1.4° 998.2 hPa 3.7 m/s 0.0 mm -1.8° 992.2 hPa 3.9 m/s 71.2 mm -1.6° 1000.3 hPa 2.3 m/s 0.0 mm -0.3° 995.6 hPa 3.7 m/s 0.0 mm -2.2° 998.5 hPa 2.7 m/s
22:00 -1.5° 998.1 hPa 4.0 m/s 0.0 mm -0.8° 991.5 hPa 4.2 m/s 71.2 mm -0.5° 999.3 hPa 4.3 m/s 0.0 mm -1.5° 995.7 hPa 3.4 m/s 0.0 mm -0.9° 998.8 hPa 3.5 m/s
 08:22     15:45    Daglengte: 7:23 Vrijdag 03 Dec
01:00 0.6° 997.5 hPa 5.2 m/s 0.0 mm 1.2° 989.8 hPa 7.6 m/s 72.5 mm 0.5° 998.9 hPa 5.0 m/s 0.0 mm 1.5° 995.2 hPa 4.8 m/s 0.0 mm -0.5° 998.1 hPa 3.4 m/s
04:00 1.1° 997.8 hPa 6.3 m/s 0.0 mm -0.4° 990.2 hPa 7.4 m/s 73.3 mm 1.2° 999.1 hPa 5.2 m/s 0.0 mm 1.2° 997.8 hPa 4.7 m/s
07:00 1.3° 998.3 hPa 5.0 m/s 16.5 mm -1.1° 992.0 hPa 3.6 m/s 73.4 mm 1.3° 999.2 hPa 4.6 m/s 0.0 mm 1.7° 998.7 hPa 6.1 m/s
10:00 1.2° 999.6 hPa 4.3 m/s 0.0 mm -3.4° 995.0 hPa 2.7 m/s 73.6 mm 1.8° 1000.2 hPa 4.1 m/s 0.0 mm 2.0° 1000.6 hPa 5.0 m/s
13:00 2.3° 999.4 hPa 3.7 m/s 8.3 mm -0.9° 996.6 hPa 0.9 m/s 73.6 mm 2.7° 999.7 hPa 3.6 m/s 0.2 mm 2.5° 1000.9 hPa 3.2 m/s
16:00 2.0° 998.8 hPa 4.6 m/s 25.8 mm -1.0° 997.7 hPa 2.1 m/s 73.6 mm 2.8° 998.4 hPa 4.6 m/s 1.9 mm 1.9° 1001.6 hPa 4.0 m/s
19:00 1.5° 997.9 hPa 6.4 m/s 22.8 mm -2.2° 997.7 hPa 2.8 m/s 73.6 mm 1.9° 996.1 hPa 7.2 m/s 3.0 mm 1.7° 1001.6 hPa 3.5 m/s
22:00 0.6° 997.0 hPa 6.1 m/s 20.0 mm -2.1° 997.1 hPa 3.6 m/s 73.6 mm 3.9° 994.5 hPa 6.4 m/s 1.4 mm 2.5° 1001.4 hPa 5.4 m/s
 08:24     15:44    Daglengte: 7:20 Zaterdag 04 Dec
01:00 2.6° 995.8 hPa 4.9 m/s 25.6 mm -0.6° 995.9 hPa 4.3 m/s 73.6 mm 4.0° 994.8 hPa 4.7 m/s 0.0 mm 2.0° 1000.1 hPa 5.2 m/s
04:00 3.6° 994.3 hPa 4.0 m/s 0.0 mm 1.2° 993.6 hPa 4.2 m/s 73.9 mm 4.1° 994.5 hPa 3.9 m/s 0.0 mm 1.4° 998.3 hPa 5.7 m/s
07:00 3.6° 993.7 hPa 4.1 m/s 0.0 mm 0.7° 992.0 hPa 5.3 m/s 74.9 mm 4.4° 994.1 hPa 3.8 m/s 0.0 mm 0.9° 996.8 hPa 6.2 m/s
10:00 0.4° 991.2 hPa 5.7 m/s 80.4 mm 0.4° 991.2 hPa 5.7 m/s 80.4 mm 1.2° 996.0 hPa 7.0 m/s
13:00 1.1° 990.2 hPa 4.8 m/s 88.0 mm 1.1° 990.2 hPa 4.8 m/s 88.0 mm 0.8° 994.8 hPa 6.0 m/s
16:00 1.2° 994.7 hPa 5.7 m/s 30.2 mm 1.2° 994.7 hPa 5.7 m/s 30.2 mm
19:00 1.3° 995.0 hPa 5.4 m/s 31.3 mm 1.3° 995.0 hPa 5.4 m/s 31.3 mm
22:00 1.7° 995.3 hPa 5.7 m/s 32.7 mm 1.7° 995.3 hPa 5.7 m/s 32.7 mm
 08:25     15:44    Daglengte: 7:19 Zondag 05 Dec
01:00 2.9° 995.6 hPa 3.4 m/s 33.7 mm 2.9° 995.6 hPa 3.4 m/s 33.7 mm
04:00 3.4° 996.8 hPa 2.8 m/s 35.9 mm 3.4° 996.8 hPa 2.8 m/s 35.9 mm
07:00 3.4° 998.6 hPa 3.6 m/s 37.3 mm 3.4° 998.6 hPa 3.6 m/s 37.3 mm
10:00 3.2° 1000.9 hPa 4.9 m/s 40.7 mm 3.2° 1000.9 hPa 4.9 m/s 40.7 mm
13:00 3.8° 1002.9 hPa 3.8 m/s 41.3 mm 3.8° 1002.9 hPa 3.8 m/s 41.3 mm
16:00 2.4° 1005.1 hPa 3.7 m/s 41.3 mm 2.4° 1005.1 hPa 3.7 m/s 41.3 mm
19:00 1.4° 1007.3 hPa 2.8 m/s 41.3 mm 1.4° 1007.3 hPa 2.8 m/s 41.3 mm
22:00 0.8° 1009.5 hPa 2.5 m/s 41.3 mm 0.8° 1009.5 hPa 2.5 m/s 41.3 mm
 08:27     15:43    Daglengte: 7:16 Maandag 06 Dec
01:00 0.9° 1010.6 hPa 2.2 m/s 41.3 mm 0.9° 1010.6 hPa 2.2 m/s 41.3 mm
04:00 2.7° 1012.0 hPa 1.7 m/s 41.3 mm 2.7° 1012.0 hPa 1.7 m/s 41.3 mm
07:00 2.7° 1013.6 hPa 0.8 m/s 41.4 mm 2.7° 1013.6 hPa 0.8 m/s 41.4 mm
10:00 2.8° 1015.4 hPa 0.4 m/s 41.4 mm 2.8° 1015.4 hPa 0.4 m/s 41.4 mm
13:00 3.5° 1015.3 hPa 1.4 m/s 41.4 mm 3.5° 1015.3 hPa 1.4 m/s 41.4 mm
16:00 2.9° 1016.4 hPa 1.3 m/s 41.5 mm 2.9° 1016.4 hPa 1.3 m/s 41.5 mm
19:00 2.6° 1017.2 hPa 2.3 m/s 41.7 mm 2.6° 1017.2 hPa 2.3 m/s 41.7 mm
22:00 2.0° 1018.4 hPa 1.2 m/s 41.8 mm 2.0° 1018.4 hPa 1.2 m/s 41.8 mm
 08:28     15:43    Daglengte: 7:15 Dinsdag 07 Dec
01:00 1.8° 1018.8 hPa 1.3 m/s 41.8 mm 1.8° 1018.8 hPa 1.3 m/s 41.8 mm
04:00 1.8° 1019.5 hPa 1.1 m/s 41.8 mm 1.8° 1019.5 hPa 1.1 m/s 41.8 mm
07:00 2.1° 1019.7 hPa 1.4 m/s 41.8 mm 2.1° 1019.7 hPa 1.4 m/s 41.8 mm
10:00 1.7° 1020.3 hPa 1.7 m/s 41.8 mm 1.7° 1020.3 hPa 1.7 m/s 41.8 mm
13:00 3.1° 1020.3 hPa 2.1 m/s 41.8 mm 3.1° 1020.3 hPa 2.1 m/s 41.8 mm
16:00 2.3° 1020.5 hPa 2.9 m/s 41.8 mm 2.3° 1020.5 hPa 2.9 m/s 41.8 mm
19:00 1.2° 1020.5 hPa 3.2 m/s 41.8 mm 1.2° 1020.5 hPa 3.2 m/s 41.8 mm
22:00 1.1° 1021.1 hPa 3.4 m/s 41.8 mm 1.1° 1021.1 hPa 3.4 m/s 41.8 mm
 08:29     15:42    Daglengte: 7:13 Woensdag 08 Dec
01:00 0.8° 1021.0 hPa 3.7 m/s 41.8 mm 0.8° 1021.0 hPa 3.7 m/s 41.8 mm
04:00 0.0° 1020.7 hPa 3.7 m/s 41.8 mm 0.0° 1020.7 hPa 3.7 m/s 41.8 mm
07:00 0.4° 1020.6 hPa 4.9 m/s 41.8 mm 0.4° 1020.6 hPa 4.9 m/s 41.8 mm
10:00 1.4° 1021.5 hPa 5.5 m/s 41.8 mm 1.4° 1021.5 hPa 5.5 m/s 41.8 mm
13:00 2.9° 1021.4 hPa 5.7 m/s 41.8 mm 2.9° 1021.4 hPa 5.7 m/s 41.8 mm
19:00 1.6° 1023.1 hPa 4.7 m/s 41.8 mm 1.6° 1023.1 hPa 4.7 m/s 41.8 mm
 08:31     15:42    Daglengte: 7:11 Donderdag 09 Dec
01:00 0.7° 1024.0 hPa 3.5 m/s 41.8 mm 0.7° 1024.0 hPa 3.5 m/s 41.8 mm
07:00 -0.2° 1024.8 hPa 3.5 m/s 41.8 mm -0.2° 1024.8 hPa 3.5 m/s 41.8 mm
13:00 2.3° 1025.4 hPa 4.6 m/s 41.8 mm 2.3° 1025.4 hPa 4.6 m/s 41.8 mm
19:00 -0.3° 1025.3 hPa 4.3 m/s 41.8 mm -0.3° 1025.3 hPa 4.3 m/s 41.8 mm
 08:32     15:42    Daglengte: 7:10 Vrijdag 10 Dec
01:00 -0.9° 1025.2 hPa 4.1 m/s 41.8 mm -0.9° 1025.2 hPa 4.1 m/s 41.8 mm
07:00 -1.0° 1025.4 hPa 4.3 m/s 41.8 mm -1.0° 1025.4 hPa 4.3 m/s 41.8 mm
13:00 1.2° 1026.5 hPa 3.8 m/s 41.8 mm 1.2° 1026.5 hPa 3.8 m/s 41.8 mm
19:00 -0.7° 1028.3 hPa 3.0 m/s 41.8 mm -0.7° 1028.3 hPa 3.0 m/s 41.8 mm
 08:33     15:41    Daglengte: 7:08 Zaterdag 11 Dec
01:00 1.0° 1031.1 hPa 2.5 m/s 41.8 mm 1.0° 1031.1 hPa 2.5 m/s 41.8 mm
07:00 3.2° 1011.3 hPa 4.4 m/s 0.5 mm
13:00 4.4° 1011.1 hPa 5.2 m/s 0.5 mm
19:00 4.0° 1010.7 hPa 5.3 m/s 0.0 mm
 08:34     15:41    Daglengte: 7:07 Zondag 12 Dec
01:00 3.7° 1011.6 hPa 5.0 m/s 0.6 mm
07:00 4.0° 1011.0 hPa 5.2 m/s 0.7 mm
13:00 5.3° 1011.3 hPa 5.3 m/s 0.7 mm
19:00 4.7° 1011.9 hPa 5.2 m/s 0.8 mm
 08:35     15:41    Daglengte: 7:06 Maandag 13 Dec
01:00 4.3° 1013.3 hPa 5.1 m/s 0.3 mm
07:00 4.1° 1013.7 hPa 4.7 m/s 0.3 mm
13:00 5.3° 1014.3 hPa 5.4 m/s 0.5 mm
19:00 4.5° 1015.3 hPa 5.0 m/s 0.5 mm
 08:36     15:41    Daglengte: 7:05 Dinsdag 14 Dec
01:00 4.5° 1016.7 hPa 5.3 m/s 0.3 mm
07:00 4.4° 1016.9 hPa 4.7 m/s 0.4 mm
13:00 5.7° 1018.4 hPa 4.7 m/s 0.2 mm
19:00 4.5° 1018.7 hPa 3.7 m/s 0.2 mm
 08:37     15:41    Daglengte: 7:04 Woensdag 15 Dec
01:00 4.4° 1018.6 hPa 4.6 m/s 0.8 mm
07:00 4.6° 1017.6 hPa 4.1 m/s 0.7 mm
13:00 5.7° 1017.5 hPa 5.2 m/s 0.6 mm
19:00 5.1° 1016.3 hPa 4.6 m/s 0.6 mm
 08:38     15:41    Daglengte: 7:03 Donderdag 16 Dec
01:00 4.9° 1015.8 hPa 4.8 m/s 0.1 mm
07:00 4.7° 1015.9 hPa 4.5 m/s 0.6 mm
FMI Hirlam - 7.5 km EWN WRFDA - 12 km DWD ICON - 7 km GFS - 25 km Basiskaart






























































Updatetijd (Europe/Amsterdam) Resolutie Lengte Stap
FMI Hirlam 06:00, 12:00, 18:00, 00:00 7.5 km 49h 1h
EWN WRFDA 08:45, 14:45, 20:45, 02:45 12 km 73h 1h
DWD ICON 04:45, 10:45, 16:45, 22:45 7 km 75h 1h
GFS 07:30, 13:30, 19:30, 01:30 25 km 237h 3h
30+ mm
25-30 mm
20-25 mm
15-20 mm
10-15 mm
6-10 mm
4-6 mm
2-4 mm
1-2 mm
0.5-1 mm
0.2-0.5 mm
0.1-0.2 mm
30+ mm
25-30 mm
20-25 mm
15-20 mm
10-15 mm
6-10 mm
4-6 mm
2-4 mm
1-2 mm
0.5-1 mm
0.2-0.5 mm
0.1-0.2 mm
Sneeuwval
Natte sneeuw
Hagel
Vorst
30+ mm
25-30 mm
20-25 mm
15-20 mm
10-15 mm
6-10 mm
4-6 mm
2-4 mm
1-2 mm
0.5-1 mm
0.2-0.5 mm
0.1-0.2 mm
Sneeuwval
Natte sneeuw
Hagel
Vorst
Onweer
50 mm
40 mm
30 mm
26 mm
22 mm
18 mm
14 mm
10 mm
9 mm
8 mm
7 mm
6 mm
5 mm
4.5 mm
4 mm
3.5 mm
3 mm
2.5 mm
2 mm
1.5 mm
1 mm
0.8 mm
0.6 mm
0.4 mm
0.2 mm
0.05 mm
35°
30°
25°
20°
15°
10°
-5°
-10°
-15°
-20°
-25°
-30°
-35°
33> m/s
29 m/s
25 m/s
21 m/s
17 m/s
14 m/s
11 m/s
8 m/s
5 m/s
3 m/s
0 m/s
2600 J/kg
2400 J/kg
2200 J/kg
2000 J/kg
1800 J/kg
1600 J/kg
1400 J/kg
1200 J/kg
1000 J/kg
800 J/kg
600 J/kg
400 J/kg
200 J/kg
70 dBZ
65 dBZ
60 dBZ
55 dBZ
50 dBZ
45 dBZ
40 dBZ
35 dBZ
30 dBZ
25 dBZ
20 dBZ
15 dBZ
10 dBZ
5 dBZ
-1 K
-2 K
-3 K
-4 K
-5 K
-6 K
-7 K
-8 K
-9 K
950 m²/s²
900 m²/s²
850 m²/s²
800 m²/s²
750 m²/s²
700 m²/s²
650 m²/s²
600 m²/s²
550 m²/s²
500 m²/s²
450 m²/s²
400 m²/s²
350 m²/s²
300 m²/s²
250 m²/s²
200 m²/s²
150 m²/s²
100 m²/s²
46 m/s
44 m/s
42 m/s
40 m/s
38 m/s
36 m/s
34 m/s
32 m/s
30 m/s
28 m/s
26 m/s
24 m/s
22 m/s
20 m/s
16 m/s
12 m/s
8 m/s
4 m/s
30 m/s
28 m/s
26 m/s
24 m/s
22 m/s
20 m/s
18 m/s
16 m/s
14 m/s
12 m/s
10 m/s
8 m/s
6 m/s
4 m/s
2 m/s
3.0
2.8
2.6
2.4
2.2
2.0
1.8
1.6
1.4
1.2
1.0
0.8
0.6
0.4
0.2
15
14
13
12
11
10
9
8
7
6
5
4
3
2
1
90%
80%
70%
60%
50%
40%
30%
20%
10%
42
40
38
36
34
32
30
28
26
24
22
20
18
16
14
12
90+ cm
80-90 cm
70-80 cm
60-70 cm
50-60 cm
40-50 cm
30-40 cm
20-30 cm
10-20 cm
1-10 cm
Sneeuwval
Natte sneeuw
Regen
>120 mm
115 mm
110 mm
105 mm
100 mm
95 mm
90 mm
85 mm
80 mm
75 mm
70 mm
65 mm
60 mm
55 mm
50 mm
45 mm
45 mm
40 mm
35 mm
30 mm
25 mm
20 mm
15 mm
10 mm
5 mm
0.1 mm
960 hPa
880 hPa
800 hPa
720 hPa
640 hPa
560 hPa
584 gpdm
568 gpdm
552 gpdm
536 gpdm
520 gpdm
504 gpdm
488 gpdm
Extreem zwaar Noodweer Kans op onweer
15% 15% 5% 50% 15%

Dag




Kaart






35°
30°
25°
20°
15°
10°
-5°
-10°
-15°
-20°
-25°
-30°
-35°
33> m/s
29 m/s
25 m/s
21 m/s
17 m/s
14 m/s
11 m/s
8 m/s
5 m/s
3 m/s
0 m/s
Extreem zwaar Noodweer Kans op onweer
15% 15% 5% 50% 15%
>120 mm
115 mm
110 mm
105 mm
100 mm
95 mm
90 mm
85 mm
80 mm
75 mm
70 mm
65 mm
60 mm
55 mm
50 mm
45 mm
45 mm
40 mm
35 mm
30 mm
25 mm
20 mm
15 mm
10 mm
5 mm
0.1 mm
Onweer risico kaarten - De groene en gele kleur geeft de kans op onweer aan binnen 40 km van een punt. Oranje, rood en violet hebben hetzelfde niveau zoals je het ziet op estofex.org waaronder ook de kans op hagel en supercells.

dBZ - dBZ staat voor decibel ten opzichte van Z.

Cape - Convective available potential energy (CAPE), is de totale hoeveelheid energie die een luchtpakketje nodig heeft om zover mogelijk te stijgen in de atmosfeer.

K Index - K-Index wordt berekend door de Vertical Totals (VT) en het verschil tussen de 850 hPa temperatuur en de 700 hPa dauwpuntsdepressie (Tdd 700) bij elkaar op te tellen.

TT Index - Convectie index wordt gebruikt voor het voorspellen van zware buien of onweer.

WRF - The Weather Research and Forecasting (WRF) is een volgende generatie mesoscale numeriek weersvoorspelling systeem ontworpen om zowel de operationele planning als het atmosferisch onderzoek te dienen. WRF is a cooperatie tussen het National Center for Atmospheric Research (NCAR), National Centers for Environmental Prediction (NCEP), Forecast Systems Laboratory (FSL), Air Force Weather Agency (AFWA), Naval Research Laboratory, University of Oklahoma, en de Federal Aviation Administration (FAA). Deze software draait op onze server.

WRFDA - Een meer geavanceerde versie van WRF

Arome - Het 2.5 km Arome model. Verzorgd door het Noors Meteorologisch Instituut.

MET Norway - De proff-default 4km meteorological data is een beste keus selectie van meteorologische modellen gebruikt door met.no die zijn geïnterpoleerd tot een gemeenschappelijke dataset. Verzorgd door het Noorse Meteorologisch Instituut.

SMHI - Het Hirlam model verzorgd door het Zweeds meteorologisch instituut.

FMI - Het Hirlam model verzorgd door het Fins m